TimeEST,TemperatureF,Dew PointF,Humidity,Sea Level PressureIn,VisibilityMPH,Wind Direction,Wind SpeedMPH,Gust SpeedMPH,PrecipitationIn,Events,Conditions,WindDirDegrees,DateUTC
12:15 AM,68.0,60.8,78,30.11,10.0,ENE,3.5,-,N/A,,Overcast,70,2013-11-17 05:15:00
12:35 AM,68.0,60.8,78,30.10,10.0,ENE,4.6,-,N/A,,Overcast,60,2013-11-17 05:35:00
12:55 AM,66.2,60.8,83,30.10,10.0,Calm,Calm,-,N/A,,Overcast,0,2013-11-17 05:55:00
1:15 AM,66.2,60.8,83,30.10,10.0,Calm,Calm,-,N/A,,Overcast,0,2013-11-17 06:15:00
1:35 AM,68.0,60.8,78,30.10,10.0,Calm,Calm,-,N/A,,Overcast,0,2013-11-17 06:35:00
1:55 AM,66.2,60.8,83,30.09,10.0,Calm,Calm,-,N/A,,Overcast,0,2013-11-17 06:55:00
2:15 AM,66.2,60.8,83,30.09,10.0,Calm,Calm,-,N/A,,Overcast,0,2013-11-17 07:15:00
2:35 AM,66.2,60.8,83,30.09,10.0,ENE,3.5,-,N/A,,Overcast,70,2013-11-17 07:35:00
2:55 AM,66.2,60.8,83,30.07,9.0,NE,4.6,-,N/A,,Overcast,50,2013-11-17 07:55:00
3:15 AM,66.2,60.8,83,30.08,10.0,Calm,Calm,-,N/A,,Overcast,0,2013-11-17 08:15:00
3:35 AM,66.2,60.8,83,30.07,10.0,Calm,Calm,-,N/A,,Mostly Cloudy,0,2013-11-17 08:35:00
3:55 AM,66.2,60.8,83,30.07,10.0,Calm,Calm,-,N/A,,Overcast,0,2013-11-17 08:55:00
4:15 AM,66.2,60.8,83,30.07,10.0,ENE,5.8,-,N/A,,Overcast,70,2013-11-17 09:15:00
4:35 AM,66.2,60.8,83,30.07,10.0,ENE,4.6,-,N/A,,Overcast,60,2013-11-17 09:35:00
4:55 AM,66.2,60.8,83,30.07,10.0,ENE,4.6,-,N/A,,Overcast,60,2013-11-17 09:55:00
5:15 AM,66.2,60.8,83,30.07,10.0,ENE,4.6,-,N/A,,Scattered Clouds,70,2013-11-17 10:15:00
5:35 AM,68.0,60.8,78,30.07,10.0,NE,3.5,-,N/A,,Partly Cloudy,40,2013-11-17 10:35:00
5:55 AM,68.0,60.8,78,30.07,10.0,Calm,Calm,-,N/A,,Mostly Cloudy,0,2013-11-17 10:55:00
6:15 AM,68.0,60.8,78,30.07,10.0,ENE,3.5,-,N/A,,Mostly Cloudy,70,2013-11-17 11:15:00
6:35 AM,68.0,60.8,78,30.08,10.0,Calm,Calm,-,N/A,,Mostly Cloudy,0,2013-11-17 11:35:00
6:50 AM,68.0,66.2,94,30.07,10.0,East,3.5,-,N/A,,Overcast,80,2013-11-17 11:50:00
7:50 AM,68.0,66.2,94,30.08,10.0,Calm,Calm,-,N/A,,Mostly Cloudy,0,2013-11-17 12:50:00
8:50 AM,69.8,66.2,88,30.10,10.0,Calm,Calm,-,N/A,,Mostly Cloudy,0,2013-11-17 13:50:00
9:50 AM,71.6,64.4,78,30.12,10.0,ESE,4.6,-,N/A,,Mostly Cloudy,110,2013-11-17 14:50:00
10:50 AM,71.6,64.4,78,30.12,10.0,SSE,5.8,-,N/A,,Mostly Cloudy,160,2013-11-17 15:50:00
11:50 AM,78.8,66.2,65,30.08,10.0,South,6.9,-,N/A,,Overcast,170,2013-11-17 16:50:00
12:50 PM,78.8,66.2,65,30.06,10.0,SSW,11.5,-,N/A,,Mostly Cloudy,200,2013-11-17 17:50:00
1:50 PM,80.6,66.2,61,30.04,10.0,South,5.8,-,N/A,,Mostly Cloudy,170,2013-11-17 18:50:00
2:50 PM,80.6,66.2,61,30.02,10.0,SSW,5.8,-,N/A,,Mostly Cloudy,200,2013-11-17 19:50:00
3:50 PM,80.6,64.4,58,30.02,10.0,SW,6.9,-,N/A,,Overcast,220,2013-11-17 20:50:00
4:50 PM,77.0,66.2,69,30.03,5.0,WNW,3.5,-,N/A,,Overcast,290,2013-11-17 21:50:00
5:50 PM,73.4,66.2,78,30.04,6.0,Calm,Calm,-,N/A,,Mostly Cloudy,0,2013-11-17 22:50:00
6:50 PM,73.4,66.2,78,30.05,10.0,Calm,Calm,-,N/A,,Overcast,0,2013-11-17 23:50:00
7:55 PM,73.4,66.2,78,30.06,10.0,Calm,Calm,-,N/A,,Overcast,0,2013-11-18 00:55:00
8:15 PM,73.4,66.2,78,30.06,10.0,Calm,Calm,-,N/A,,Overcast,0,2013-11-18 01:15:00
8:35 PM,73.4,64.4,73,30.05,10.0,SW,3.5,-,N/A,,Mostly Cloudy,220,2013-11-18 01:35:00
8:55 PM,71.6,64.4,78,30.05,10.0,SSW,3.5,-,N/A,,Clear,210,2013-11-18 01:55:00
9:15 PM,69.8,64.4,83,30.05,2.5,Calm,Calm,-,N/A,,Clear,0,2013-11-18 02:15:00
9:35 PM,69.8,64.4,83,30.05,0.8,Calm,Calm,-,N/A,,Unknown,0,2013-11-18 02:35:00
9:55 PM,69.8,64.4,83,30.05,10.0,Calm,Calm,-,N/A,,Clear,0,2013-11-18 02:55:00
10:15 PM,69.8,62.6,78,30.05,1.2,Calm,Calm,-,N/A,,Clear,0,2013-11-18 03:15:00
10:35 PM,69.8,62.6,78,30.05,5.0,Calm,Calm,-,N/A,,Clear,0,2013-11-18 03:35:00
10:55 PM,69.8,62.6,78,30.06,1.8,Calm,Calm,-,N/A,,Clear,0,2013-11-18 03:55:00
11:15 PM,69.8,62.6,78,30.06,1.2,Calm,Calm,-,N/A,,Clear,0,2013-11-18 04:15:00
11:35 PM,68.0,62.6,83,30.06,3.0,Calm,Calm,-,N/A,,Clear,0,2013-11-18 04:35:00
11:55 PM,68.0,62.6,83,30.05,4.0,Calm,Calm,-,N/A,,Mostly Cloudy,0,2013-11-18 04:55:00